Regional Weather Roundup
Issued by NWS

Home | Current Version | Previous Version | Graphics & Text | Print | Product List | Glossary On
Versions: 1 2 3 4 5 6 7 8 9 10 11 12 13 14 15 16 17 18 19 20 21 22 23 24 25 26 27 28 29 30 31 32 33 34 35 36 37 38 39 40 41 42 43 44 45 46 47 48 49 50
000
ASUS45 KSLC 241510
RWRUT

UTAH REGIONAL WEATHER ROUNDUP
NATIONAL WEATHER SERVICE SALT LAKE CITY UT
900 AM MDT FRI APR 24 2015

UTZ001>011-023>025-241600-

NORTHERN UTAH

CITY           SKY/WX    TMP DP  RH WIND       PRES   REMARKS
BRIGHAM CITY   CLOUDY    54  39  57 W3        29.73R
HILL AFB       CLOUDY    54  34  46 S12       29.73R
LOGAN          CLOUDY    46  41  82 N6        29.72S
OGDEN          CLOUDY    54  38  54 NW3       29.73R
PROVO AIRPORT  NOT AVBL
SALT LAKE CITY PTSUNNY   58  31  35 S16       29.72R
VERNAL         SUNNY     47  32  56 VRB3      29.79S
WENDOVER       PTSUNNY   54  37  54 NE6       29.71S
HEBER CITY     SUNNY     43  30  61 CALM      29.78F
WEST JORDAN    MOSUNNY   55  36  47 SE16G23   29.74S

$$

UTZ012>022-026-027-241600-

SOUTHERN/CENTRAL UTAH

CITY           SKY/WX    TMP DP  RH WIND       PRES   REMARKS
BLANDING       PTSUNNY   48  26  41 CALM      29.93S
BRYCE CANYON   MOSUNNY   42  26  53 CALM      29.91S
CEDAR CITY     SUNNY     51  30  44 SW12      29.84S
DELTA          SUNNY     52  29  40 S13       29.78S
HANKSVILLE     SUNNY     50  23  34 CALM      29.80R
MILFORD        SUNNY     51  31  46 S22       29.81S
MOAB/CYNLANDS  PTSUNNY   55  29  36 E3        29.76R
PRICE          SUNNY     50  24  36 CALM      29.79S
ST GEORGE      SUNNY     57  30  35 E3        29.85S
KANAB          MOSUNNY   46  30  53 CALM      29.93S

$$

REGIONAL REPORTS     COLORADO/ARIZONA

CITY           SKY/WX    TMP DP  RH WIND       PRES   REMARKS
CRAIG, CO      MOSUNNY   43  35  73 W3        29.80F
GRAND JUNCTION MOSUNNY   54  33  45 SE12      29.78R
RIFLE          MOSUNNY   47  31  53 CALM      29.81F
MONTROSE       PTSUNNY   50  33  52 N6        29.84S
CORTEZ         SUNNY     52  30  43 S6        29.88R
PAGE, AZ       SUNNY     58  30  34 NE5       29.85R
GRAND CANYON   CLOUDY    44  30  57 SW8       29.96R
KINGMAN        SUNNY     58  40  51 CALM      29.88R
FLAGSTAFF      PTSUNNY   43  34  70 SW17      29.97R

$$

REGIONAL REPORTS    NEVADA/IDAHO/WYOMING

CITY           SKY/WX    TMP DP  RH WIND       PRES   REMARKS
LAS VEGAS, NV  MOSUNNY   62  41  46 S17       29.75R
ELY            CLOUDY    47  31  53 S12       29.80S
ELKO           LGT RAIN  40  37  89 CALM      29.76R FOG
POCATELLO, ID  MOSUNNY   46  38  73 SW8       29.72R
BURLEY         CLOUDY    47  37  68 W14G21    29.70R
EVANSTON, WY   MOSUNNY   41  31  67 SW8       29.79S
ROCK SPRINGS   MOSUNNY   43  34  70 W3        29.78S
KEMMERER       PTSUNNY   41  34  75 CALM      29.79S

$$



USA.gov is the U.S. government's official web portal to all federal, state and local government web resources and services.